Wind_Speed
46 49 48 49 55 58 61 60 59 62 65 69 66 65 65 62 64 64 62 67 71 76 79 83 84 86 90 91 95 102 101 95
50 48 57 58 59 60 61 61 66 65 64 60 62 62 62 64 65 67 70 73 77 81 86 89 92 95 96 97 94 91 92 92
58 60 54 57 59 60 60 57 52 51 50 49 49 49 51 54 58 65 68 72 75 77 79 85 92 93 87 88 91 89 84 80
56 58 61 61 55 50 47 41 43 41 41 42 45 47 50 54 58 62 67 71 75 79 82 85 87 88 88 86 80 77 80 84
48 45 44 43 41 38 34 33 35 39 43 47 50 54 57 61 64 68 70 75 78 80 80 81 80 77 74 75 80 82 86 89
37 35 33 30 26 28 32 35 40 43 47 49 51 53 54 55 57 60 64 66 69 71 71 70 69 70 75 81 86 91 97 101
25 22 21 24 28 31 35 38 40 44 47 50 53 54 55 56 59 63 66 68 69 67 66 68 73 77 81 87 94 99 103 107
17 19 22 26 29 30 32 34 38 42 47 52 55 57 60 62 64 64 65 67 68 68 70 72 77 82 91 96 100 104 108 111
19 20 23 25 27 31 36 41 45 47 51 55 58 59 60 63 65 68 70 70 70 70 74 79 84 92 98 104 105 108 109 108
21 23 26 29 34 38 42 45 49 52 56 60 64 65 68 69 70 73 73 73 73 74 79 84 92 98 104 107 107 109 110 108
26 28 32 35 39 42 46 49 53 58 61 66 69 71 72 73 75 75 75 76 78 81 86 93 99 102 107 108 105 106 108 109
32 34 37 38 42 46 50 54 57 61 65 70 72 74 76 76 78 78 77 79 82 87 93 99 103 107 106 104 103 106 108 107
38 40 42 44 47 51 56 59 63 68 72 75 78 80 79 79 80 80 80 85 90 94 100 104 107 108 105 106 110 108 107 105
41 44 47 51 53 57 61 66 71 75 79 81 82 81 82 84 83 83 87 92 96 101 104 109 109 107 108 109 108 106 103 100
45 49 54 56 60 64 68 73 78 80 83 86 84 82 84 84 86 90 94 99 102 106 109 109 106 107 109 109 106 102 100 96
50 56 60 63 66 70 75 78 81 84 87 87 85 85 87 88 91 97 100 104 108 111 112 108 108 107 109 106 104 102 97 92
54 60 66 68 71 77 79 81 84 87 87 86 86 89 90 92 97 101 106 108 113 112 109 108 109 107 109 101 100 96 91 85
59 65 70 73 76 79 80 84 88 88 87 86 89 91 94 98 103 106 110 112 112 109 108 109 111 106 102 99 93 90 86 77
66 70 74 77 78 81 85 89 88 87 87 89 90 95 100 103 106 110 113 111 109 108 109 111 110 102 104 97 91 88 79 72
Wind_Direction
260 260 261 262 263 264 266 272 277 283 284 285 283 278 281 275 277 275 275 277 274 281 282 284 285 286 287 287 287 290 292 295
250 254 254 256 267 275 278 283 284 285 284 282 282 280 277 278 278 278 281 281 279 280 281 281 283 284 287 289 290 292 293 294
253 261 266 268 279 282 283 284 283 283 283 285 285 284 285 287 288 285 284 282 283 283 285 284 280 285 286 290 292 292 293 293
263 268 270 274 276 278 281 280 283 284 285 286 287 288 287 287 286 286 286 286 287 288 288 290 291 291 292 293 293 295 297 296
265 268 274 277 280 281 282 285 288 291 293 294 296 296 295 295 294 292 291 291 290 290 291 292 292 294 296 297 298 298 297 293
273 275 277 277 282 290 294 299 300 299 298 299 299 299 300 299 298 296 297 296 297 298 297 296 296 297 300 300 299 296 295 295
264 265 281 293 300 305 305 304 305 305 305 304 305 305 305 307 309 309 307 303 301 300 298 299 300 300 300 300 300 299 298 297
275 287 300 305 304 305 309 310 313 314 314 312 311 309 307 305 305 306 306 305 303 301 300 299 300 302 302 302 301 301 300 300
289 298 297 298 304 306 310 314 315 314 315 314 313 311 309 309 308 310 310 309 307 304 303 303 303 303 304 304 304 303 302 302
286 287 297 297 302 306 308 310 310 313 313 315 315 316 314 312 312 312 312 309 305 303 303 304 304 306 305 306 305 305 305 305
284 291 292 296 301 304 306 307 308 311 315 317 318 317 315 315 314 313 311 308 307 306 307 307 308 308 308 308 309 309 309 307
285 290 293 293 301 306 306 308 311 315 314 315 316 315 316 314 315 313 311 310 309 308 309 310 311 311 311 310 310 309 309 310
283 289 294 295 301 305 308 310 311 312 314 315 316 316 316 315 314 312 311 310 310 311 311 312 312 314 312 311 311 312 313 311
283 290 294 297 299 304 306 309 311 313 313 315 316 315 315 315 312 312 312 312 312 313 313 315 315 314 313 313 314 314 314 313
285 289 293 296 300 303 306 308 310 312 311 314 315 314 314 313 313 313 312 312 313 314 314 314 313 314 315 316 317 317 316 313
289 291 293 296 299 302 304 308 309 310 311 313 313 313 314 313 313 313 313 314 315 315 314 314 315 314 314 317 318 318 314 313
288 288 291 294 298 301 306 308 308 309 312 312 313 313 312 312 312 313 314 314 315 316 315 314 315 316 315 317 319 316 315 313
285 287 292 297 301 304 306 307 309 311 311 313 312 312 312 312 313 314 316 315 315 315 315 316 316 317 317 318 318 317 315 314
290 294 297 300 304 306 307 310 310 310 311 311 312 311 311 314 315 315 315 316 315 315 318 318 318 319 319 319 319 317 315 317
Height
10670 10669 10669 10668 10667 10665 10664 10660 10659 10654 10648 10646 10644 10635 10626 10619 10614 10610 10606 10600 10594 10590 10583 10576 10569 10565 10558 10554 10547 10539 10533 10528
10659 10659 10660 10658 10654 10651 10650 10649 10646 10641 10637 10632 10628 10623 10616 10609 10606 10601 10595 10589 10584 10578 10571 10563 10552 10549 10543 10536 10531 10523 10515 10508
10651 10651 10649 10647 10645 10644 10642 10638 10635 10631 10626 10621 10617 10613 10608 10603 10597 10591 10585 10578 10571 10562 10551 10546 10542 10530 10526 10521 10510 10503 10494 10488
10641 10640 10639 10640 10638 10636 10633 10629 10625 10621 10617 10612 10607 10602 10597 10592 10586 10579 10571 10563 10556 10547 10538 10528 10522 10514 10507 10499 10493 10486 10478 10468
10634 10633 10632 10630 10628 10626 10623 10621 10616 10611 10606 10601 10596 10590 10585 10578 10572 10564 10558 10546 10539 10530 10523 10514 10505 10497 10490 10484 10473 10467 10457 10448
10626 10624 10622 10621 10620 10618 10614 10610 10606 10602 10596 10590 10584 10578 10571 10565 10557 10549 10540 10534 10523 10513 10504 10497 10490 10483 10474 10464 10453 10442 10429 10419
10618 10618 10616 10614 10612 10609 10606 10602 10597 10591 10585 10579 10573 10566 10559 10551 10542 10533 10525 10518 10508 10500 10492 10484 10474 10464 10454 10443 10429 10415 10402 10388
10612 10611 10609 10607 10605 10602 10598 10594 10588 10582 10576 10569 10562 10554 10546 10539 10529 10522 10512 10501 10491 10483 10474 10465 10455 10443 10430 10418 10405 10388 10372 10357
10606 10605 10604 10602 10599 10595 10590 10585 10579 10574 10567 10560 10552 10543 10535 10524 10516 10503 10494 10485 10475 10466 10455 10445 10433 10421 10407 10391 10376 10361 10346 10328
10601 10600 10598 10595 10592 10587 10582 10577 10571 10564 10557 10548 10539 10530 10518 10509 10500 10489 10479 10469 10458 10450 10439 10427 10414 10400 10383 10366 10349 10332 10314 10297
10595 10593 10591 10587 10583 10579 10573 10567 10560 10553 10544 10534 10524 10515 10504 10494 10483 10473 10463 10452 10441 10430 10418 10404 10390 10373 10356 10337 10321 10301 10286 10269
10588 10585 10581 10578 10574 10568 10561 10554 10546 10538 10529 10520 10511 10500 10489 10479 10468 10457 10446 10435 10423 10411 10397 10380 10364 10347 10329 10310 10296 10279 10258 10240
10580 10576 10572 10568 10563 10557 10549 10540 10532 10524 10515 10505 10495 10483 10473 10463 10451 10439 10429 10417 10404 10390 10373 10357 10339 10321 10302 10285 10269 10250 10230 10212
10571 10567 10562 10557 10550 10544 10537 10527 10518 10509 10499 10490 10480 10468 10456 10444 10433 10423 10411 10397 10382 10366 10350 10332 10313 10296 10279 10260 10242 10224 10204 10185
10561 10557 10551 10545 10538 10530 10522 10513 10503 10495 10485 10473 10462 10451 10439 10428 10415 10403 10389 10374 10358 10342 10325 10308 10291 10271 10251 10236 10215 10198 10179 10161
10550 10544 10538 10532 10525 10517 10508 10501 10489 10480 10468 10456 10444 10432 10420 10408 10394 10381 10366 10350 10334 10318 10300 10282 10265 10249 10225 10210 10191 10174 10156 10138
10538 10531 10525 10519 10513 10502 10496 10485 10474 10462 10450 10438 10425 10413 10400 10388 10375 10359 10343 10327 10310 10292 10275 10258 10241 10226 10202 10187 10170 10151 10133 10117
10526 10519 10511 10505 10498 10488 10479 10467 10456 10442 10430 10419 10407 10394 10381 10367 10352 10337 10320 10303 10286 10268 10252 10233 10215 10202 10178 10166 10148 10129 10113 10098
10511 10504 10497 10489 10480 10470 10459 10448 10436 10424 10411 10400 10388 10376 10360 10346 10330 10314 10297 10280 10261 10244 10227 10208 10191 10179 10157 10145 10126 10109 10094 10079